Preview of NWS' New Version of Forecast
This preview is not operational and should not be used for support decisions.
Latest weather observations around

Anniston Metro Airport (KANB)

Using English Units (Switch to International System of Units)
Date/ Time (CST) Wind (mph) Vis. (mi) Weather Sky Cond. Temp (°F) Rel. Humidity Wind Chill (°F) Heat Index (°F) Pressure Precip. (in)
Air Dwpt 6 hour Altimeter (inHg) Sea level (inHg) 1 hr 3 hr 6 hr
Max Min
Jan 24 02:01 W 10 4 Light Rain and Fog/Mist SCT009 OVC019 45 43     93% 40   29.81   0    
Jan 24 01:53 W 10 6 Fog/Mist FEW011 FEW019 OVC023 46 43     89% 41   29.81 29.81 0    
Jan 24 01:25 WSW 13 7 Cloudy SCT010 BKN021 OVC026 47 44     90% 41   29.81   0    
Jan 24 00:53 WSW 16 6 Fog/Mist OVC007 48 45     89% 42   29.8 29.8 0    
Jan 24 00:35 WNW 11 5 Light Rain and Fog/Mist BKN005 OVC011 51 48     89%     29.78   0    
Jan 23 23:53 SW 7 10 Cloudy OVC004 53 52     96%     29.77 29.77 0   1
Jan 23 23:41 WSW 6 10 Cloudy BKN004 OVC020 53 52     96%     29.76   0    
Jan 23 23:25 SW 6 10 Cloudy FEW006 BKN020 OVC024 53 52     96%     29.75   0    
Jan 23 23:05 WSW 5 10 Cloudy BKN024 OVC085 53 52     96%     29.74   0    
Jan 23 22:53 WSW 3 10 Light Rain FEW026 OVC080 53 52     96%     29.74 29.74 0    
Jan 23 21:53 SE 3 10 Light Rain SCT070 OVC095 53 52     96%     29.74 29.73 0    
Jan 23 20:53 Calm 10 Cloudy SCT011 OVC045 53 52     96%     29.76 29.76 0 1  
Jan 23 19:53 SSE 3 5 Light Rain and Fog/Mist FEW015 BKN038 OVC046 54 53     97%     29.79 29.79 0    
Jan 23 19:24 Calm 3 Rain and Fog/Mist SCT014 BKN032 OVC042 55 53     93%     29.8   0    
Jan 23 19:13   2.5 Rain and Fog/Mist SCT014 OVC032 55 53     93%     29.79   0    
Jan 23 18:58 SW 7 3 Rain and Fog/Mist SCT014 OVC030 55 53     93%     29.82   0    
Jan 23 18:53 WSW 8 2.5 Rain and Fog/Mist SCT015 BKN023 OVC030 55 53     93%     29.82 29.83 0    
Jan 23 18:47 SW 9 2.5 Rain and Fog/Mist SCT015 BKN020 OVC030 55 52     88%     29.81   0    
Jan 23 18:31 Calm 3 Rain and Fog/Mist SCT015 BKN030 OVC048 56 52     87%     29.77   0    
Jan 23 18:21 SW 10 3 Rain and Fog/Mist BKN015 BKN026 OVC050 57 53     87%     29.78   0    
Jan 23 17:58   3 Rain and Fog/Mist FEW007 BKN014 OVC021 58 56     93%     29.77   0    
Jan 23 17:53 3 2 Rain and Fog/Mist FEW008 BKN013 OVC022 58 57     97%     29.76 29.77 0   1
Jan 23 17:46 Calm 1.75 Rain and Fog/Mist BKN008 OVC018 58 57     97%     29.76   0    
Jan 23 17:34 W 5 2.5 Rain and Fog/Mist SCT009 BKN014 OVC019 58 57     97%     29.77   0    
Jan 23 17:24 W 5 3 Rain and Fog/Mist SCT012 OVC021 58 57     97%     29.78   0    
Jan 23 17:21 WNW 5 2.5 Rain and Fog/Mist BKN013 OVC021 58 57     97%     29.77   0    
Jan 23 16:53 S 3 2 Rain and Fog/Mist FEW010 SCT018 OVC039 58 57     97%     29.78 29.78 1    
Jan 23 16:48 S 3 2.5 Rain and Fog/Mist FEW011 OVC039 57 57     100%     29.77   1    
Jan 23 16:33 S 3 2 Rain and Fog/Mist SCT011 BKN028 OVC044 58 57     97%     29.77   1    
Jan 23 16:21 S 6 1 Heavy Rain and Fog/Mist FEW019 BKN030 OVC039 58 57     97%     29.77   0    
Jan 23 16:10 SW 7 1.5 Rain and Fog/Mist SCT020 BKN027 OVC047 59 57     93%     29.78   0    
Jan 23 15:54 W 9 0.75 Heavy Rain and Fog/Mist BKN017 BKN027 OVC044 59 57     93%     29.76   0    
Jan 23 15:49   2.5 Heavy Rain and Fog/Mist SCT017 BKN026 OVC055 59 57     93%     29.77 29.78 0    
Jan 23 15:48 W 13 2.5 Heavy Rain and Fog/Mist SCT015 BKN026 OVC060 59 57     94%     29.77   0    
Jan 23 14:53 SE 9 10 Light Rain FEW080 OVC100 61 55     81%     29.74   0 0  
Jan 23 13:53 SSE 10 10 Cloudy FEW036 OVC085 64 54     70%     29.81 29.81      
Jan 23 12:53 SSE 9 10 Cloudy FEW029 BKN060 OVC090 62 54     75%     29.86 29.87 0    
Jan 23 11:53 SSE 14 10 Cloudy FEW029 OVC065 62 53     72%     29.93 29.93     0
Jan 23 10:53 SE 13 10 Cloudy FEW029 BKN080 OVC110 62 53     72%     29.98 29.98 0    
Jan 23 09:53 SE 14 10 Cloudy FEW032 OVC070 60 51     72%     30.01 30.02      
Jan 23 08:53 SSE 15 10 Cloudy FEW029 FEW055 OVC075 58 50     75%     30.03 30.04      
Jan 23 07:53 E 11 10 Cloudy FEW021 BKN060 OVC085 55 49     80%     30.06 30.07      
Jan 23 07:32 ESE 10 10 Cloudy SCT019 BKN060 OVC085 54 48     80%     30.08        
Jan 23 06:53 ESE 9 10 Cloudy OVC016 53 47     80%     30.1 30.11      
Jan 23 05:53 E 9 10 Cloudy OVC016 51 45     79%     30.11 30.12      
Jan 23 04:53 E 7 10 Cloudy OVC018 50 43     77%     30.15 30.16      
Jan 23 03:53 7 10 Cloudy OVC018 50 42     74%     30.16 30.17      
Jan 23 02:53 ESE 8 10 Cloudy OVC020 50 41     71%     30.21 30.22      
Jan 23 01:53 5 10 Cloudy BKN023 OVC095 49 40     71% 47   30.22 30.24      
Jan 23 01:16 ESE 9 10 Cloudy BKN023 BKN070 OVC090 49 39     69% 45   30.24        
Jan 23 00:53 E 10 10 Cloudy BKN075 OVC090 49 38     66% 45   30.24 30.25      
Jan 22 23:53 E 9 10 Cloudy SCT027 OVC085 48 36     63% 44   30.26 30.27      
Jan 22 23:30   10 Cloudy BKN027 OVC080 49 35     59%     30.27        
Jan 22 22:53 ENE 15 10 Cloudy OVC075 48 35     61% 42   30.25 30.27      
Jan 22 21:53 E 11 10 Cloudy OVC070 48 34     58% 43   30.29 30.3      
Jan 22 20:53 E 13 10 Cloudy OVC065 48 33     56% 43   30.3 30.32      
Jan 22 19:53 ENE 8 10 Cloudy OVC065 48 33     56% 44   30.32 30.35      
Jan 22 18:53 NE 10 10 Cloudy SCT038 OVC060 48 33     56% 43   30.33 30.35      
Jan 22 17:53 E 9 10 Cloudy OVC060 48 33     56% 44   30.32 30.35      
Jan 22 16:53 E 10 10 Cloudy FEW036 OVC060 48 32     54% 43   30.32 30.35      
Jan 22 15:53   10 Cloudy OVC060 48 32     54%     30.32 30.34      
Jan 22 14:53 E 10 10 Cloudy OVC060 49 32     52% 45   30.35 30.37      
Jan 22 13:53 E 8 10 Cloudy FEW034 OVC050 48 30     50% 44   30.37 30.4      
Jan 22 12:53 ESE 8 10 Mostly Cloudy BKN048 48 30     50% 44   30.39 30.42      
Jan 22 11:53 7 10 Cloudy OVC045 47 28     48% 44   30.44 30.46      
Jan 22 10:53 E 9 10 Mostly Cloudy BKN037 44 24     45% 39   30.47 30.5      
Jan 22 09:53 E 10 10 Mostly Clear FEW025 41 21     45% 35   30.48 30.51      
Jan 22 09:41 7 10 Mostly Clear FEW023 40 20     44% 35   30.48        
Jan 22 09:19 E 9 10 Mostly Cloudy BKN021 39 19     44% 33   30.49        
Jan 22 08:53 E 10 10 Clear CLR 38 17     42% 31   30.49 30.53      
Jan 22 07:53 E 9 10 Clear CLR 35 14     42% 28   30.49 30.53      
Jan 22 06:53 E 7 10 Clear CLR 33 15     47% 27   30.48 30.52      
Jan 22 05:53 E 9 10 Clear CLR 34 15     45% 27   30.46 30.5      
Jan 22 04:53 E 10 10 Clear CLR 34 16     47% 26   30.44 30.46      
Jan 22 03:53 ENE 7 10 Clear CLR 34 18     51% 28   30.43 30.46      
Jan 22 02:53 ENE 8 10 Clear CLR 35 18     49% 29   30.42 30.45      
Jan 22 01:53 ENE 6 10 Clear CLR 35 19     52% 30   30.42 30.44      
Jan 22 00:53 NE 8 10 Clear CLR 34 17     50% 27   30.42 30.45      
Jan 21 23:53 NE 7 10 Clear CLR 34 15     45% 28   30.4 30.43      
Jan 21 22:53 NE 10 10 Clear CLR 33 15     47% 25   30.39 30.43      
Jan 21 21:53 ENE 9 10 Clear CLR 34 15     45% 27   30.38 30.42      
Jan 21 20:53 ENE 6 10 Clear CLR 34 13     41% 29   30.39 30.42      
Jan 21 19:53 ENE 7 10 Clear CLR 35 14     42% 29   30.39 30.43      
Jan 21 18:53 ENE 6 10 Clear CLR 35 20     54% 30   30.38 30.42      
Jan 21 17:53 ENE 3 10 Clear CLR 38 13     35% 36   30.39 30.42      
Jan 21 16:53 NE 5 10 Clear CLR 42 10     26% 39   30.39 30.42      
Jan 21 15:53 E 3 10 Clear CLR 43 10     26% 41   30.39 30.42      
Jan 21 14:53 3 10 Clear CLR 43 10     26% 41   30.38 30.41      
Jan 21 13:53 3 10 Clear CLR 42 11     28% 40   30.4 30.43      
Jan 21 12:53 NNE 7 10 Clear CLR 39 8     27% 34   30.42 30.46      
Jan 21 11:53 7 10 Clear CLR 36 8     31% 30   30.45 30.48      
Jan 21 10:53 6 10 Clear CLR 33 7     33% 28   30.47 30.51      
Jan 21 09:53 N 8 10 Clear CLR 30 10     43% 22   30.47 30.51      
Jan 21 08:53 NNE 11 10 Clear CLR 27 9     46% 17   30.46 30.5      
Jan 21 07:53 NNE 10 10 Clear CLR 26 10     50% 16   30.43 30.47      
Jan 21 06:53 NNE 5 10 Clear CLR 24 12     60% 18   30.39 30.43      
Jan 21 05:53 N 6 10 Clear CLR 25 11     55% 18   30.36 30.4      
Jan 21 04:53 N 6 10 Clear CLR 25 15     66% 18   30.33 30.37      
Jan 21 03:53 NNE 6 10 Clear CLR 26 17     68% 19   30.31 30.35      
Jan 21 02:53 5 10 Clear CLR 26 17     68% 20   30.31 30.35      
May 14 23:53 Calm 10 Clear CLR 73 68     84%   74 29.98 29.94      
May 14 10:53 N 7 10 Mostly Clear FEW055 88 63     43%   89 30.05 30.02      
May 13 07:53 E 3 10 Clear CLR 67 62     84%     30.16 30.14      
May 13 01:53 Calm 10 Clear CLR 63 60     90%     30.08 30.06      
May 12 13:53 7 10 Clear CLR 89 56     33%   87 30.12 30.1      
May 12 01:53 Calm 10 Clear CLR 64 61     90%     30.1 30.07      
Notice The following observation data may not be complete
May 11 19:53 Calm 10 Clear CLR   63      %     30.08 30.06      
Jun 11 20:53 Calm 10 Partly Cloudy SCT048 SCT080 80 70     71%   83 30.11 30.08      
Jun 11 08:33 ENE 5 10 Partly Cloudy SCT018 76 69     79%   77 30.19        
Jun 10 18:53 SSE 5 10 Clear CLR 83 62     49%   84 30.05 30.03      
Jun 09 15:53 WSW 8 10 Clear CLR 83 57     41%   82 29.95 29.93      
Jun 09 00:53 Calm 10 Clear CLR 64 60     87%     29.92 29.9